Weather History for Pensacola NAS, FL

Change the Weather History Date:

Thursday, January 17, 2013

  Actual Average Record
Temperature  
Mean Temperature 42 °F -  
Max Temperature 48 °F 59 °F - (-1)
Min Temperature 37 °F 41 °F - (-1)
Degree Days  
Heating Degree Days 22    
Moisture  
Dew Point 37 °F    
Average Humidity 83    
Maximum Humidity 100    
Minimum Humidity 61    
Precipitation  
Precipitation 0.00 in - - ()
Sea Level Pressure  
Sea Level Pressure 30.15 in    
Wind  
Wind Speed 9 mph (NW)    
Max Wind Speed 21 mph    
Max Gust Speed 30 mph    
Visibility 10 miles    
Events Rain    
Averages and records for this station are not official NWS values.
T = Trace of Precipitation, MM = Missing Value Source: NWS Daily Summary

Daily Weather History Graph

Daily Weather History Graph

Search for Another Location

Airport:

Trip Planner

Search our weather history database for the weather conditions in past years. The results will help you decide how hot, cold, wet, or windy it might be!

Date:

Astronomy

Jan. 17, 2013 Rise Set
Actual Time 6:46 AM CST 5:13 PM CST
Civil Twilight 6:20 AM CST 5:38 PM CST
Nautical Twilight 5:51 AM CST 6:08 PM CST
Astronomical Twilight 5:22 AM CST 6:37 PM CST
Moon 10:23 AM CST (1/17) 11:30 PM CST (1/17)
Length of Visible Light 11h 18m
Length of Day
10h 26m
Waxing Crescent, 38% of the Moon is Illuminated
Jan 17
Waxing Crescent
Jan 18
First Quarter
Jan 26
Full
Feb 3
Last Quarter
Feb 10
New

Hourly Weather History & Observations

Time (CST) Temp. Windchill Dew Point Humidity Pressure Visibility Wind Dir Wind Speed Gust Speed Precip Events Conditions
12:56 AM 45.0 °F 41.8 °F 45.0 °F 100% 30.04 in 6.0 mi NW 5.8 mph - 0.00 in   Overcast
1:47 AM 44.6 °F 42.2 °F 44.6 °F 100% 30.04 in 10.0 mi West 4.6 mph - N/A   Overcast
1:56 AM 44.1 °F 41.5 °F 44.1 °F 100% 30.04 in 9.0 mi West 4.6 mph - N/A   Overcast
2:56 AM 44.1 °F 40.8 °F 44.1 °F 100% 30.04 in 8.0 mi West 5.8 mph - N/A   Overcast
3:56 AM 43.0 °F 36.4 °F 42.1 °F 97% 30.05 in 8.0 mi West 12.7 mph 21.9 mph 0.00 in Rain Light Rain
4:04 AM 42.8 °F 37.0 °F 41.0 °F 93% 30.05 in 7.0 mi West 10.4 mph 23.0 mph 0.00 in Rain Light Rain
4:23 AM 42.8 °F 37.0 °F 41.0 °F 93% 30.06 in 7.0 mi West 10.4 mph 18.4 mph 0.00 in Rain Light Rain
4:36 AM 42.8 °F 36.6 °F 39.2 °F 87% 30.07 in 10.0 mi West 11.5 mph 20.7 mph 0.00 in   Overcast
4:56 AM 39.9 °F 34.5 °F 39.0 °F 97% 30.09 in 10.0 mi WNW 8.1 mph 17.3 mph 0.00 in   Overcast
5:11 AM 39.2 °F 34.2 °F 39.2 °F 100% 30.08 in 10.0 mi West 6.9 mph - N/A   Overcast
5:43 AM 39.2 °F 33.0 °F 37.4 °F 93% 30.08 in 10.0 mi West 9.2 mph 20.7 mph N/A   Overcast
5:56 AM 39.0 °F 34.0 °F 37.0 °F 93% 30.09 in 10.0 mi West 6.9 mph - N/A   Overcast
6:56 AM 39.0 °F 32.8 °F 36.0 °F 89% 30.10 in 10.0 mi West 9.2 mph 16.1 mph N/A   Overcast
7:51 AM 37.4 °F 32.1 °F 35.6 °F 93% 30.12 in 9.0 mi WNW 6.9 mph 16.1 mph 0.00 in   Light Drizzle
7:56 AM 37.9 °F 30.0 °F 36.0 °F 93% 30.13 in 10.0 mi WNW 12.7 mph 23.0 mph 0.00 in   Light Drizzle
8:08 AM 37.4 °F 29.3 °F 35.6 °F 93% 30.14 in 10.0 mi WNW 12.7 mph 25.3 mph 0.00 in   Overcast
8:56 AM 37.9 °F 29.6 °F 33.1 °F 83% 30.17 in 10.0 mi WNW 13.8 mph 26.5 mph 0.00 in   Overcast
9:56 AM 39.0 °F 30.6 °F 32.0 °F 76% 30.17 in 10.0 mi NW 15.0 mph 26.5 mph N/A   Overcast
10:56 AM 41.0 °F 34.7 °F 32.0 °F 70% 30.17 in 10.0 mi NW 10.4 mph 28.8 mph N/A   Mostly Cloudy
11:56 AM 41.0 °F 33.5 °F 32.0 °F 70% 30.17 in 10.0 mi NW 13.8 mph 23.0 mph N/A   Mostly Cloudy
12:56 PM 43.0 °F 36.0 °F 33.1 °F 68% 30.15 in 10.0 mi NW 13.8 mph 27.6 mph N/A   Mostly Cloudy
1:56 PM 46.9 °F - 34.0 °F 61% 30.14 in 10.0 mi NNW 20.7 mph 29.9 mph N/A   Mostly Cloudy
2:56 PM 48.0 °F - 35.1 °F 61% 30.16 in 10.0 mi NNW 15.0 mph 26.5 mph N/A   Mostly Cloudy
3:56 PM 48.9 °F - 36.0 °F 61% 30.19 in 10.0 mi NNW 16.1 mph 23.0 mph N/A   Mostly Cloudy
4:56 PM 46.9 °F - 36.0 °F 66% 30.21 in 10.0 mi NNW 12.7 mph 21.9 mph N/A   Scattered Clouds
5:56 PM 46.0 °F 40.6 °F 35.1 °F 66% 30.25 in 10.0 mi NW 11.5 mph 21.9 mph N/A   Scattered Clouds
6:56 PM 45.0 °F 38.5 °F 35.1 °F 68% 30.29 in 10.0 mi NNW 13.8 mph 21.9 mph N/A   Clear
7:56 PM 44.1 °F 37.4 °F 35.1 °F 71% 30.31 in 10.0 mi NNW 13.8 mph - N/A   Clear
8:56 PM 43.0 °F 36.4 °F 35.1 °F 74% 30.32 in 10.0 mi NNW 12.7 mph 20.7 mph N/A   Clear
9:56 PM 43.0 °F 37.2 °F 35.1 °F 74% 30.32 in 10.0 mi NNW 10.4 mph 21.9 mph N/A   Clear
10:56 PM 43.0 °F 36.4 °F 35.1 °F 74% 30.30 in 10.0 mi NNW 12.7 mph 19.6 mph N/A   Clear
11:56 PM 42.1 °F 35.2 °F 36.0 °F 79% 30.31 in 10.0 mi NW 12.7 mph 20.7 mph N/A   Clear